This is the latest recevied weather packets stored in our database for station/object AF5AA. If no packets are shown the sender has not sent any weather packets the latest 10 day(s).
| Time | Temp. | Humidity | Pressure | Rain* | Wind** | Luminosity | Snow |
|---|---|---|---|---|---|---|---|
| 1777823409 | 22.22° C | 51% | 1021.8 hPa | 0 mm | - | 171 W/m² | - |
| 1777823107 | 22.22° C | 51% | 1021.8 hPa | 0 mm | - | 112 W/m² | - |
| 1777822804 | 21.67° C | 53% | 1022 hPa | 0 mm | - | 60 W/m² | - |
| 1777822502 | 21.11° C | 60% | 1021.8 hPa | 0 mm | - | 135 W/m² | - |
| 1777822199 | 21.11° C | 62% | 1021.8 hPa | 0 mm | - | 85 W/m² | - |
| 1777821896 | 21.11° C | 57% | 1022 hPa | 0 mm | - | 29 W/m² | - |
| 1777821594 | 20.56° C | 58% | 1021.7 hPa | 0 mm | - | 28 W/m² | - |
| 1777821292 | 20.56° C | 59% | 1021.9 hPa | 1.78 mm | - | 33 W/m² | - |
| 1777820989 | 20.56° C | 65% | 1022 hPa | 1.78 mm | - | 34 W/m² | - |
| 1777820685 | 20° C | 63% | 1022 hPa | 0 mm | - | 27 W/m² | - |
| 1777820381 | 19.44° C | 75% | 1021.9 hPa | 0 mm | - | 26 W/m² | - |
| 1777820079 | 18.89° C | 76% | 1021.9 hPa | 0 mm | - | 32 W/m² | - |
| 1777819776 | 18.33° C | 78% | 1021.8 hPa | 0 mm | - | 42 W/m² | - |
| 1777819473 | 17.78° C | 82% | 1021.9 hPa | 0 mm | - | 25 W/m² | - |
| 1777819172 | 17.22° C | 86% | 1021.8 hPa | 0 mm | - | 24 W/m² | - |
| 1777818868 | 16.67° C | 90% | 1021.8 hPa | 0 mm | - | 49 W/m² | - |
| 1777818564 | 16.11° C | 91% | 1021.7 hPa | 0 mm | - | 23 W/m² | - |
| 1777818262 | 15.56° C | 93% | 1021.8 hPa | 0 mm | - | 22 W/m² | - |
| 1777817957 | 15° C | 96% | 1021.7 hPa | 0 mm | - | 23 W/m² | - |
| 1777817655 | 15° C | 97% | 1021.9 hPa | 0 mm | - | 39 W/m² | - |
| 1777817352 | 14.44° C | 98% | 1021.6 hPa | 0 mm | - | 35 W/m² | - |
| 1777817049 | 13.89° C | 98% | 1021.8 hPa | 0 mm | - | 20 W/m² | - |
| 1777816744 | 13.33° C | 98% | 1021.9 hPa | 0 mm | - | 19 W/m² | - |
| 1777816442 | 13.33° C | 98% | 1021.8 hPa | 0 mm | - | 21 W/m² | - |
| 1777816140 | 12.78° C | 99% | 1021.8 hPa | 0 mm | - | 19 W/m² | - |
* Rain latest hour (hover to see other rain measurements)
** Current wind speed in m/s (hover to see current wind gust speed)